Location: Austin, TX
(30.3000°N, 97.7500°W)
Time: 19:12:28
(UTC-06:00)

Daily predictions for brighter satellites

Satellite Brightness Start Highest point End
(mag) Time Altitude Azimuth Time Altitude Azimuth Time Altitude Azimuth
OAO 3 Copernicus 4.4 17:48:38 10° WSW 17:53:43 78° NNW 17:58:49 10° ENE
Cosmos 1844 3.8 17:48:33 10° S 17:54:14 71° ESE 18:00:00 10° NNE
Cosmos 1862 3.3 17:51:21 10° N 17:55:21 65° E 17:59:20 10° SSE
AQUARIUS 4.2 17:53:12 10° SSE 17:57:36 57° ENE 18:02:00 10° N
Cosmos 1484 Rocket 2.7 17:55:53 10° SSE 17:59:37 63° ENE 18:03:24 10° N
Cosmos 1867 3.6 17:54:11 10° NNW 17:59:38 69° ENE 18:05:01 10° SE
Cosmos 371 Rocket 3.8 17:55:55 10° N 18:00:22 37° ENE 18:04:49 10° SE
Meteor 2-12 Rocket 4.5 17:55:33 10° S 18:01:35 67° E 18:07:37 10° NNE
Cosmos 1461 4.2 17:57:52 10° N 18:01:48 26° ENE 18:05:44 10° ESE
Cosmos 1570 Rocket 4.2 17:56:43 10° N 18:01:57 54° ENE 18:07:07 10° SSE
Cosmos 2278 Rocket 2.9 17:57:01 10° SSE 18:02:05 35° ESE 18:07:10 10° NE
USA 116 3.9 18:04:56 10° NNE 18:09:31 87° E 18:13:32 10° SSW
USA 234 3.8 18:04:52 10° NNE 18:11:15 59° NW 18:17:38 10° WSW
Cosmos 2233 Rocket 4.0 18:11:33 10° S 18:17:45 65° E 18:23:55 10° NNE
Cosmos 2242 Rocket 4.1 18:14:19 10° SSW 18:18:51 68° W 18:23:24 10° N
BREEZE-M DEB (TANK) 3.7 18:13:56 10° NW 18:21:06 35° NNE 18:23:36 16° E
Cosmos 1606 3.9 18:19:05 10° SE 18:22:01 21° E 18:24:11 14° NE
EO 1 Del DPAF 3.2 18:18:20 10° NNE 18:22:07 62° E 18:25:53 10° S
Cosmos 332 Rocket 3.7 18:18:13 10° NNW 18:23:06 82° ENE 18:27:59 10° SSE
COSMOS 2455 2.9 18:17:37 10° SSW 18:23:37 82° WNW 18:29:39 10° NNE
Centaur AC-112 4.2 18:17:35 10° W 18:26:06 38° SSW 18:28:54 10° SE
Meteor 1-28 Rocket 4.5 18:23:31 10° N 18:27:01 41° WNW 18:30:31 10° SSW
CORIOLIS 4.3 18:22:33 10° S 18:27:59 79° WSW 18:33:27 10° NNW
Timation 1 Rocket 4.3 18:22:40 10° SSW 18:28:39 85° ESE 18:34:40 10° NNE
IRS-1A Rocket 4.3 18:23:46 10° SSE 18:29:39 84° ENE 18:35:28 10° NNW
OAO 2 Rocket 4.2 18:26:47 10° W 18:31:41 49° SSW 18:36:40 10° SE
Aureole 3 4.4 18:27:16 10° NNW 18:31:50 70° W 18:37:41 10° S
MTI 4.5 18:29:52 10° N 18:33:01 55° WNW 18:36:10 10° SSW
SKYMED 2 3.5 18:30:40 10° NNE 18:35:01 89° W 18:39:21 10° SSW
CZ-4 R/B 2.1 18:33:43 10° S 18:37:35 54° W 18:41:24 10° NNW
ALOS 2.7 18:33:25 10° SE 18:37:42 37° ENE 18:41:59 10° N
Cosmos 1908 Rocket 4.0 18:34:14 10° NNE 18:38:15 37° E 18:42:15 10° SSE
BREEZE M DEB (TANK) 1.6 18:41:18 10° NW 18:43:42 62° SW 18:45:19 17° SE
Cosmos 1733 Rocket 3.5 18:40:08 10° NNW 18:44:31 64° W 18:48:54 10° S
Cosmos 468 Rocket 3.8 18:40:00 10° NNW 18:45:10 73° ENE 18:50:16 10° SSE
Meteor 1-14 Rocket 4.1 18:41:00 10° N 18:46:37 63° E 18:52:07 10° SSE
BREEZE M DEB (TANK) 4.0 18:46:45 10° NW 18:56:47 63° SW 18:59:49 12° SSE
Cosmos 972 Rocket 4.0 18:53:05 10° NNW 18:57:58 75° WSW 19:02:53 10° S
CENTAUR R/B 4.3 18:53:52 10° WSW 18:58:46 26° NW 19:04:10 10° N
MOS 1 4.4 18:55:40 10° S 19:01:22 80° WSW 19:07:05 10° NNW
Cosmos 1072 Rocket 4.4 18:58:05 10° S 19:04:11 72° E 19:10:24 10° N
CZ-3A R/B 3.9 18:54:05 10° NW 19:05:04 45° NE 19:07:23 32° E
Cosmos 1503 Rocket 4.0 19:02:04 10° S 19:07:17 60° ESE 19:09:22 35° NE
COSMOS 2406 3.8 19:03:47 10° NNW 19:09:24 59° WSW 19:14:58 10° S
Cosmos 2034 Rocket 4.1 19:03:51 10° SSE 19:09:57 51° E 19:14:49 16° NNE
BREEZE-M DEB 4.3 19:06:06 10° NW 19:10:17 79° SW 19:10:24 77° SSW
Cosmos 1763 Rocket 3.3 19:06:50 10° NNW 19:12:02 74° ENE 19:17:08 10° SSE
ATLAS 2AS CENTAUR RB 4.4 19:03:31 10° WSW 19:12:05 17° SSW 19:15:45 10° S
Cosmos 1814 Rocket 3.9 19:07:07 10° NNW 19:12:29 85° ENE 19:17:49 10° SSE
Cosmos 972 4.2 19:11:11 10° N 19:16:12 77° ENE 19:21:02 10° SSE
Cosmos 2221 Rocket 3.4 19:12:13 10° S 19:16:38 87° E 19:18:17 39° N
NOAA 12 4.2 19:12:17 10° S 19:17:36 79° WSW 19:22:57 10° NNW
ERS-2 4.4 19:15:38 10° SSW 19:18:44 25° W 19:21:50 10° NW
Okean 1-7 3.1 19:16:27 10° S 19:20:47 73° W 19:22:59 28° N
SPOT 3 Rocket 4.2 19:19:08 10° S 19:24:14 56° W 19:29:22 10° NNW
Aurora 2 Rocket 3.6 19:20:48 10° WSW 19:24:54 30° SSW 19:25:18 29° S
MOS 1-B Rocket 4.4 19:29:01 39° ESE 19:31:19 55° ENE 19:38:49 10° N
Cosmos 2297 3.7 19:29:39 10° SSW 19:35:20 83° WNW 19:36:49 52° N
Cosmos 1464 Rocket 4.4 19:35:39 10° SSW 19:41:39 59° W 19:47:41 10° N
Cosmos 1354 Rocket 4.4 19:37:29 10° SSW 19:42:42 60° WNW 19:44:11 43° NNW
Cosmos 841 Rocket 3.6 19:37:43 10° NNW 19:42:59 74° WSW 19:44:09 53° S
Cosmos 2278 Rocket 4.2 19:41:35 10° WSW 19:46:08 25° WNW 19:50:44 10° N
IUS-9 SRM-1 3.9 19:25:04 10° W 19:47:34 63° SSW 19:48:46 53° SSE
Atlas 2A Centaur Rocket 3.0 19:43:33 10° W 19:54:17 59° SSW 19:54:17 59° SSW
Meteor 1-27 Rocket 4.5 20:06:08 10° SSW 20:11:38 52° W 20:11:38 52° W
CZ-3C R/B 4.2 19:41:19 10° W 20:38:52 48° SSW 20:39:56 47° S
